Temp_Advection
nan nan nan nan nan nan nan nan nan nan nan nan nan nan nan nan nan nan nan nan nan nan nan nan nan nan nan nan nan nan nan nan nan nan nan nan nan nan nan nan nan nan nan nan nan nan nan nan nan
nan 0 0 -0 -0 0 -0 -0 -0 -0 -0 -0 -0 -0 -0 -0 -0 0 -0 0 0 0 0 1 -0 0 1 1 1 1 1 0 0 0 0 0 -0 -0 -0 -0 -0 -0 -0 -0 -0 -1 -1 -0 nan
nan 0 0 -0 -0 -0 -0 -0 -0 -0 -1 -0 -0 -1 -0 -0 -0 -0 -0 -0 -0 -0 0 -0 -1 -0 1 1 1 0 1 1 0 0 0 0 0 0 0 -0 -0 0 -0 -0 -1 -1 -0 -0 nan
nan -0 0 -0 -0 -1 -1 0 0 0 -0 -0 -0 -0 -0 -0 -0 0 0 -0 0 0 -0 -0 0 1 -0 -0 2 0 1 0 1 0 0 0 -0 -0 0 -0 -0 -0 -0 -0 -0 -0 0 -0 nan
nan -0 -0 -0 -0 -0 -0 -0 1 -0 0 0 -0 -0 -0 0 0 0 -0 0 0 0 0 0 0 1 1 1 -0 1 0 1 1 0 0 0 0 0 -0 -0 -0 -0 -0 -0 -0 -0 -0 0 nan
nan -0 -0 -0 -1 -1 -0 0 0 -0 -0 0 -0 -0 -0 0 -0 -0 -0 -0 0 0 0 1 1 -0 2 4 -0 0 -0 0 0 1 0 0 -0 0 -0 -0 -0 -0 0 0 -0 -0 -1 -0 nan
nan -0 -0 -0 -1 -0 -0 -0 -0 0 -0 -0 0 0 0 0 -0 0 0 -0 0 1 0 0 0 1 0 1 3 1 -0 -0 0 0 0 0 0 0 -0 -0 -0 -0 0 0 0 -0 -1 -1 nan
nan -0 -0 -0 -0 -0 -0 -0 -0 -0 -0 -0 -0 -0 -0 0 -0 0 0 0 0 0 -0 0 0 2 -0 0 1 2 0 -0 0 0 0 0 0 0 -0 -0 0 -0 -0 0 0 0 -0 -0 nan
nan -0 -0 -1 -0 -0 0 -0 -0 -0 -0 -0 -0 -0 0 0 0 0 0 1 1 0 0 1 -1 1 0 1 2 2 1 1 0 1 1 0 0 0 -0 -0 -0 0 -0 -0 0 0 0 -0 nan
nan -0 -1 -1 -0 0 -1 -0 -0 -0 -0 -0 -0 0 0 0 0 0 -0 0 0 1 0 1 -0 -1 0 -0 1 1 1 1 1 0 0 0 0 -0 -0 -0 -0 -0 -0 -0 0 0 0 -0 nan
nan -1 -1 -1 -1 -0 -1 -0 -0 -0 -0 -0 -0 -0 0 0 0 0 0 0 0 0 0 0 1 0 -0 -0 1 0 0 -0 0 0 0 0 0 -0 -0 -0 -0 -0 -0 -0 -0 0 -0 -0 nan
nan -0 -1 -1 0 0 -0 -0 -0 -0 -0 -0 -0 -0 0 0 -0 0 1 0 0 0 0 1 0 1 1 0 1 1 1 0 -0 0 0 -0 -0 0 0 -0 -0 0 0 0 -0 -0 -0 -0 nan
nan -0 -1 0 -0 -0 -0 -0 -1 0 0 0 -0 0 0 0 0 0 0 0 0 0 0 -0 0 1 1 1 1 2 1 1 1 0 0 0 -0 0 0 0 0 0 -0 0 0 -0 0 -0 nan
nan 0 -1 -1 1 -1 -1 0 -0 -0 0 0 0 0 -0 -0 0 0 0 0 0 1 0 0 -0 0 1 1 0 1 1 1 1 1 0 0 1 0 0 0 -0 -0 0 0 0 0 -0 -0 nan
nan -0 -0 -1 0 -0 -2 -0 0 -1 -0 -0 -0 -0 -0 -0 -0 0 0 0 0 0 0 1 0 -0 0 0 0 1 0 0 1 0 0 0 0 0 0 0 0 0 0 0 0 0 -0 0 nan
nan -0 -0 -0 0 0 -0 0 0 -0 -0 -0 -0 -0 0 -0 0 0 0 0 0 0 1 1 1 1 1 1 2 0 0 -0 0 0 -0 0 0 0 0 0 0 0 0 0 -0 -0 0 0 nan
nan -0 -0 -1 0 -0 0 0 0 -0 -0 -0 -0 -0 0 -0 -0 -0 0 -0 0 0 0 0 0 1 1 1 1 -0 0 0 -0 -0 -0 0 0 0 0 0 0 0 0 -0 0 0 0 0 nan
nan -0 -0 -0 -0 -0 0 0 0 0 -0 -0 -0 -0 0 -0 0 -0 -0 -0 0 0 0 1 0 0 0 0 -0 0 0 1 0 0 1 0 0 -0 0 0 0 0 -0 -0 0 0 0 -0 nan
nan 0 -0 -1 -0 -0 0 0 -0 0 0 -0 0 -0 -0 0 0 0 -0 -0 -0 -0 0 1 0 0 -0 -0 0 0 1 1 0 0 1 0 -0 -0 0 -0 0 0 0 0 0 0 0 0 nan
nan -0 -0 -1 -0 -0 0 0 -0 -0 -0 -1 -1 -1 -0 -0 -1 -0 -0 -1 -1 -0 -1 -1 -1 -1 -1 -0 -0 -0 0 -0 -0 0 0 -0 0 0 0 -0 0 0 -0 0 0 0 0 0 nan
nan -0 -0 -1 -0 -0 -0 -0 -0 -0 -0 -0 -0 -0 -0 -0 -1 -1 -1 -1 -1 -1 -1 -1 -1 -1 -1 -0 -0 -0 -0 -0 -0 -0 -0 0 0 0 -0 -0 0 -0 0 0 0 0 0 0 nan
nan -1 -0 0 -0 0 -0 0 -0 -0 -0 -0 -0 0 0 0 -1 -1 -1 -1 -1 -1 -1 -1 -0 -0 -1 -1 -0 -0 -1 -0 -1 0 0 0 -0 -0 -0 -0 -0 -0 0 0 0 0 0 0 nan
nan -0 -0 0 0 0 0 -0 -0 0 -0 -0 -0 -0 -0 -0 -0 -0 -1 -1 -0 -0 -1 -1 -1 -1 -1 -1 -1 -1 -1 -1 -1 -0 -1 -1 -1 -0 -0 -0 -0 0 0 0 0 1 0 0 nan
nan 0 0 -0 -0 -0 -0 -0 0 -0 -1 -0 -0 -0 -1 -1 -0 -0 1 1 1 1 -0 -0 -1 -1 -1 -1 -1 -1 -1 -1 -1 -1 -1 -1 -0 -0 0 -0 0 0 -0 -0 1 1 0 -0 nan
nan -0 0 -0 -0 -0 -0 0 -0 -0 -0 -1 -1 -1 -2 -1 -0 0 0 -1 -0 0 0 1 -0 -1 -1 -1 -1 -1 -1 -1 -1 -1 0 0 -0 -0 0 1 1 -0 -0 0 1 1 0 0 nan
nan -0 -0 0 -0 -0 -0 -0 -0 -0 -0 -0 -0 -1 -0 0 -1 -2 -2 -2 -1 -1 -0 -1 -1 -1 -1 -1 -1 -1 -1 -1 -1 -0 0 -0 -1 -0 1 1 -0 0 0 0 1 2 1 0 nan
nan -0 -0 -0 0 0 -0 -0 -0 -0 0 -0 -0 0 1 0 -1 -2 -1 -1 -1 -1 -2 -1 -1 -1 -2 -0 0 -0 -0 -0 -0 -0 0 -0 -1 -0 1 0 1 1 0 -0 1 2 1 1 nan
nan -0 -0 -0 0 -0 -0 -0 -0 -1 -0 0 0 -0 -1 -0 -1 -1 -0 -2 -1 -2 -0 -0 -1 -1 1 2 0 -0 -0 -0 -0 0 1 0 -1 1 2 1 -0 0 0 2 3 1 1 1 nan
nan 0 -0 -0 -0 0 0 -0 -1 -1 -0 -0 -0 -1 -1 -2 -2 -1 -1 -1 -1 1 1 1 1 2 1 -0 0 1 1 1 1 1 1 0 1 2 1 1 -1 -0 2 2 1 1 1 0 nan
nan nan nan nan nan nan nan nan nan nan nan nan nan nan nan nan nan nan nan nan nan nan nan nan nan nan nan nan nan nan nan nan nan nan nan nan nan nan nan nan nan nan nan nan nan nan nan nan nan
Wind_Speed
1 3 4 4 4 4 4 7 3 10 8 4 5 6 7 16 5 2 5 8 12 22 25 26 19 29 31 31 29 26 26 30 33 34 35 34 33 34 33 31 31 31 31 32 31 30 27 26 21
0 3 4 1 3 1 5 5 5 7 8 14 10 4 8 4 9 9 3 12 20 28 23 22 23 24 28 29 28 26 27 31 33 35 36 36 35 36 34 32 32 32 31 30 29 28 26 24 20
0 1 1 4 3 3 4 5 7 11 27 10 4 9 3 3 5 5 2 16 29 22 24 26 38 31 32 29 25 23 31 33 35 37 36 36 37 36 35 33 31 30 30 29 29 28 24 18 18
1 1 1 3 7 7 6 6 7 4 13 15 2 5 4 7 4 6 4 8 20 21 24 31 30 45 38 35 29 28 31 35 38 37 36 37 37 35 34 33 30 28 28 29 30 27 21 15 16
3 1 3 2 7 5 7 6 8 3 8 2 9 4 2 6 4 4 2 11 13 17 19 25 29 37 42 34 33 31 33 36 38 38 37 37 36 35 32 31 29 27 28 28 27 26 20 19 19
1 1 3 3 6 6 5 4 5 2 6 1 3 10 6 5 3 2 4 11 21 15 16 22 27 25 32 40 40 33 35 37 38 38 37 36 35 34 32 29 27 26 27 27 25 23 22 21 19
4 3 4 5 8 5 3 6 4 1 3 3 2 2 3 3 4 5 4 10 16 23 21 18 23 33 30 34 39 39 36 37 36 37 36 35 34 33 31 28 26 25 24 24 23 21 21 23 17
2 4 2 5 3 5 3 3 5 4 3 0 3 4 4 7 4 4 6 9 11 19 17 15 16 42 47 35 36 36 33 34 35 35 35 34 33 31 29 26 23 24 22 20 20 20 21 18 12
4 1 5 5 4 5 4 5 1 4 8 4 4 2 10 2 3 4 8 13 14 14 10 17 19 27 31 36 37 37 32 33 33 34 34 34 34 31 28 25 22 23 20 19 20 20 19 17 11
4 3 7 7 4 2 7 7 8 4 3 4 2 5 3 4 4 3 7 14 20 25 17 22 9 24 34 30 31 32 34 34 35 34 32 32 32 29 26 22 19 19 16 18 16 16 17 16 9
4 6 11 18 15 4 10 7 4 9 2 4 7 4 2 5 7 10 12 19 23 20 21 25 28 33 30 39 34 34 35 35 35 33 32 32 30 27 23 19 18 16 16 17 13 11 11 11 7
2 20 18 17 10 3 7 9 6 4 4 4 6 8 9 5 6 13 19 20 23 23 30 29 32 39 40 43 44 38 38 36 35 34 34 32 29 23 19 18 16 15 15 13 10 8 7 6 4
4 7 13 6 6 12 16 6 9 7 8 13 12 11 10 9 8 11 16 23 27 24 28 29 32 35 38 39 43 42 39 37 37 37 33 28 24 23 20 16 15 15 12 10 9 7 3 3 6
10 15 11 10 8 13 11 5 3 9 15 15 12 12 11 10 10 11 13 18 25 28 28 27 34 34 41 47 43 40 39 40 38 35 32 26 22 21 17 15 13 13 13 10 7 4 5 8 8
13 6 9 9 7 6 24 4 3 19 16 16 14 13 10 7 9 12 14 16 19 30 36 34 33 34 40 43 48 47 43 39 37 33 28 24 19 18 15 12 12 14 12 9 7 8 9 9 6
5 5 2 6 3 6 3 4 5 21 22 17 14 15 13 10 7 11 15 16 21 23 32 36 32 31 41 49 50 46 39 38 33 28 28 21 18 15 14 14 16 12 12 9 11 11 11 8 7
2 5 5 11 9 6 3 3 9 25 19 19 17 16 16 12 9 9 14 17 16 17 23 36 38 43 41 40 43 47 40 41 39 30 31 28 20 17 15 14 13 14 15 14 16 15 13 13 12
5 4 4 7 5 3 5 6 6 23 19 21 22 20 20 17 11 9 14 16 18 18 21 31 38 40 38 41 45 44 44 39 32 34 35 23 18 17 17 17 17 20 20 19 19 19 17 19 17
5 7 10 14 10 6 8 5 11 17 16 16 23 24 23 23 17 11 15 18 20 22 26 35 39 41 42 44 45 46 48 42 36 39 40 21 19 20 22 20 20 24 23 21 21 23 24 24 21
9 10 17 10 4 5 6 8 3 8 11 22 24 29 28 25 22 17 17 20 23 25 28 34 38 39 42 42 40 43 40 39 36 44 39 26 21 25 24 22 23 28 26 27 24 25 26 24 23
13 10 13 9 3 3 7 5 5 6 12 12 25 32 31 35 31 26 24 24 24 28 29 31 35 36 37 38 38 33 33 36 32 44 41 32 28 27 26 27 28 30 30 30 29 28 27 26 27
11 13 10 7 3 4 5 5 5 7 6 9 17 29 35 39 36 33 31 28 28 29 29 32 35 35 33 37 39 37 39 42 44 40 35 35 35 31 32 32 30 32 33 31 30 28 28 27 29
14 15 9 5 4 2 5 2 7 4 8 9 12 29 39 45 44 42 38 34 32 30 32 34 37 38 35 36 39 39 45 45 42 39 40 36 37 38 32 31 29 33 35 35 33 31 32 32 34
10 3 3 3 2 1 5 5 4 5 12 9 12 30 40 45 50 46 41 36 35 36 36 39 41 42 41 38 40 46 48 46 42 40 39 36 37 37 33 30 32 32 37 35 35 34 33 33 32
5 5 2 3 2 6 5 3 7 4 8 16 18 31 37 47 47 49 45 44 41 43 43 43 48 47 45 45 45 46 46 44 42 41 39 37 35 36 36 36 30 33 36 35 37 37 34 31 33
8 9 6 6 4 5 3 5 6 7 4 16 24 33 42 37 46 49 50 47 45 45 45 46 46 47 47 47 46 45 44 44 45 44 43 41 40 37 33 36 33 29 28 33 38 36 34 29 32
6 5 8 5 2 2 4 6 7 8 8 10 20 31 39 38 45 50 50 49 47 46 47 48 48 47 47 49 48 46 45 47 47 45 46 44 41 34 39 30 31 27 30 31 37 38 34 33 33
13 5 2 1 6 4 3 4 5 8 9 2 2 19 31 40 42 49 49 50 49 47 45 47 49 50 51 51 50 49 48 47 46 46 45 40 39 40 32 30 34 36 35 34 39 38 35 35 34
2 4 1 5 5 6 2 5 8 11 7 4 5 23 36 34 40 45 46 49 50 48 47 48 49 51 52 51 49 50 50 50 49 49 46 43 43 39 28 34 34 38 38 38 38 35 34 34 31
7 11 11 6 4 3 5 9 6 7 9 6 10 21 26 33 31 36 42 43 47 49 51 49 50 51 53 52 45 42 39 39 41 42 46 44 31 26 34 41 33 33 36 34 32 32 33 32 26
Wind_Direction
329 274 294 339 49 64 260 263 303 290 299 105 49 77 72 30 33 113 115 215 184 174 166 184 210 181 170 163 161 158 149 144 142 138 137 134 131 128 125 123 121 119 118 117 117 112 107 103 98
223 255 300 35 97 42 277 271 308 276 8 98 86 30 39 74 54 105 132 164 170 160 166 168 187 195 170 166 161 156 148 144 139 136 135 133 130 128 126 123 121 119 118 118 118 112 105 100 104
329 256 236 124 126 184 253 268 359 70 42 71 68 39 43 10 39 88 175 194 181 172 189 190 188 205 176 165 158 156 150 145 138 137 136 132 130 129 127 124 120 118 117 119 119 116 109 109 110
29 68 138 75 260 246 232 304 324 226 34 52 59 64 15 13 44 27 100 171 184 200 203 189 204 190 180 165 156 160 152 146 142 138 136 133 132 130 127 123 120 118 118 120 124 121 113 122 120
312 31 46 339 278 266 267 125 237 92 130 90 128 161 181 264 348 352 219 171 179 168 184 181 179 185 177 174 160 161 154 146 143 140 138 135 133 130 126 122 120 119 120 123 128 124 106 100 117
331 78 51 271 251 261 255 204 185 114 166 106 81 154 198 243 320 242 175 193 193 199 198 183 178 205 179 167 158 158 153 148 145 142 141 138 135 132 126 122 121 120 122 122 126 128 108 98 117
145 84 230 254 274 302 177 159 68 208 35 17 85 104 264 315 279 171 179 183 195 202 186 166 196 208 188 157 154 151 152 150 147 145 142 141 137 132 126 122 122 120 123 121 121 130 132 108 108
185 106 263 244 281 286 27 90 95 31 67 278 3 29 284 283 162 140 126 145 191 190 206 224 190 189 174 162 153 145 153 151 151 148 146 143 136 132 127 122 121 119 119 116 113 124 142 137 124
265 45 263 252 278 261 187 133 75 96 97 44 1 295 259 252 189 156 143 161 161 168 173 199 114 175 155 158 142 142 153 154 151 151 149 145 140 137 130 124 122 115 118 121 116 125 133 140 147
138 141 246 207 271 236 63 120 154 148 112 80 22 125 170 150 183 222 173 170 146 157 149 147 149 137 141 142 136 149 150 151 154 153 150 148 144 137 129 125 123 114 128 133 129 126 125 120 127
193 218 261 276 241 161 113 94 140 130 89 181 219 156 195 204 163 179 180 174 175 172 171 172 152 153 155 144 146 155 154 157 157 153 154 149 144 137 136 143 139 134 141 142 143 134 126 115 106
275 271 253 263 226 172 147 129 73 53 137 159 156 166 171 219 200 188 185 179 182 181 169 173 167 162 160 159 158 163 160 162 159 156 154 149 145 145 155 153 149 153 152 153 147 138 130 130 135
217 295 299 268 60 116 137 116 131 126 129 127 128 177 187 198 205 194 190 179 174 183 180 172 172 169 168 159 161 163 166 164 160 156 152 153 151 165 160 160 161 162 168 171 161 155 141 147 160
302 293 296 288 281 148 123 166 68 172 154 150 158 173 181 194 201 207 203 202 184 185 182 188 176 170 163 164 162 164 164 162 159 159 159 163 162 167 161 167 170 177 186 183 174 161 174 166 155
305 320 333 296 280 133 124 112 231 164 160 159 166 168 177 194 218 211 203 206 207 184 186 187 188 179 176 176 168 171 167 159 164 163 159 160 163 160 165 167 184 189 195 194 187 185 192 180 174
330 328 322 283 111 145 162 237 218 171 167 169 172 169 179 187 194 200 206 209 198 198 190 189 185 181 179 173 176 167 172 167 162 160 160 172 175 177 186 190 196 195 202 211 205 211 216 217 224
332 250 265 301 213 143 152 190 219 182 177 177 173 184 185 192 198 207 194 198 197 198 196 185 181 178 181 180 178 185 184 183 182 192 189 186 190 191 196 205 213 216 214 215 221 222 235 240 247
208 235 290 265 226 133 179 198 191 189 184 183 182 193 191 198 208 203 191 189 196 194 201 198 187 185 186 180 186 189 187 187 187 185 188 187 196 209 215 222 229 220 215 222 224 224 232 243 245
265 263 264 273 240 152 214 218 179 187 194 192 186 196 202 205 200 204 192 194 188 194 195 190 184 188 189 190 194 193 190 196 197 194 199 198 206 220 224 227 233 220 218 231 229 229 240 238 231
256 270 281 282 215 146 179 258 118 178 213 200 189 201 207 209 199 200 196 199 197 193 194 192 195 198 194 199 200 197 197 204 213 196 204 215 222 229 231 241 230 222 221 231 236 238 239 231 228
256 251 262 239 256 46 109 319 252 196 191 215 217 210 206 206 197 197 198 200 198 194 190 190 189 188 191 193 195 201 204 202 197 199 207 214 229 227 234 238 231 228 230 230 237 242 242 232 232
262 254 251 266 128 229 146 249 278 225 222 210 222 198 200 201 206 199 197 201 205 199 192 190 190 190 190 193 195 201 195 193 197 201 208 224 228 231 236 239 236 232 233 235 239 246 244 235 234
250 243 241 226 199 139 306 111 271 166 238 231 210 201 196 203 206 204 203 202 204 199 197 193 194 196 191 190 196 200 196 203 205 213 221 226 229 235 239 236 244 239 236 237 239 240 237 234 234
246 189 272 360 101 317 241 160 257 184 222 223 220 204 199 200 207 211 211 205 204 201 198 197 195 195 197 197 196 200 204 210 215 221 229 232 233 232 238 243 246 246 243 240 243 240 236 241 245
198 104 270 306 325 226 242 234 232 239 240 216 200 209 202 205 202 206 209 207 206 204 203 202 202 203 202 205 208 210 216 220 222 224 227 231 233 234 237 239 247 244 245 249 244 245 239 246 246
212 168 164 211 198 250 296 246 247 226 199 202 223 214 214 208 208 210 213 214 211 209 209 209 210 214 214 215 217 218 221 224 226 230 233 237 237 241 246 241 239 246 258 257 251 248 241 249 247
232 171 190 160 353 121 235 285 310 283 268 206 225 212 214 211 212 217 219 220 219 215 214 215 215 219 221 223 222 221 223 226 229 232 236 242 240 241 242 240 245 254 259 263 257 247 242 248 245
207 196 128 37 186 235 236 252 232 295 293 42 229 208 210 213 208 218 221 223 225 226 225 222 223 224 226 224 225 226 227 229 233 239 243 246 237 240 240 252 247 263 254 250 245 235 238 242 249
226 200 157 146 149 187 208 252 220 233 224 217 234 240 227 214 216 217 222 227 228 229 230 232 231 230 230 230 232 234 234 236 240 243 244 245 233 232 249 257 262 260 257 253 234 238 236 242 258
235 222 188 188 206 228 173 245 272 243 243 204 261 246 235 233 230 228 225 226 232 230 230 232 236 236 238 236 230 230 238 241 240 242 250 253 227 228 256 256 258 255 252 237 236 243 248 254 251
Height
1512 1513 1512 1512 1523 1527 1527 1511 1495 1495 1490 1482 1481 1483 1489 1491 1493 1505 1498 1498 1499 1500 1507 1509 1517 1523 1523 1520 1521 1524 1522 1523 1524 1523 1526 1532 1535 1539 1544 1548 1550 1551 1554 1555 1558 1560 1561 1559 1561
1511 1512 1512 1513 1528 1535 1526 1504 1500 1490 1488 1485 1486 1487 1488 1494 1497 1499 1500 1499 1500 1499 1501 1502 1513 1522 1520 1521 1523 1523 1522 1524 1525 1526 1529 1532 1536 1541 1545 1550 1554 1555 1556 1558 1560 1561 1565 1563 1563
1510 1510 1513 1517 1531 1534 1521 1498 1496 1499 1488 1484 1490 1493 1493 1496 1498 1500 1499 1498 1498 1497 1497 1492 1492 1514 1516 1518 1522 1528 1525 1525 1523 1527 1531 1534 1538 1542 1545 1550 1555 1558 1558 1560 1562 1564 1566 1566 1566
1509 1511 1513 1522 1523 1513 1504 1498 1495 1494 1489 1487 1489 1494 1498 1498 1496 1496 1495 1497 1494 1496 1499 1501 1503 1504 1509 1512 1523 1529 1528 1525 1525 1528 1533 1537 1541 1545 1548 1550 1554 1559 1562 1562 1564 1567 1568 1569 1569
1509 1510 1522 1524 1516 1503 1492 1494 1497 1488 1489 1488 1486 1491 1491 1493 1495 1494 1493 1496 1494 1496 1502 1502 1502 1504 1497 1505 1520 1527 1528 1526 1527 1530 1536 1538 1544 1547 1552 1553 1556 1560 1562 1565 1569 1569 1569 1571 1573
1509 1512 1527 1531 1514 1496 1488 1494 1494 1491 1490 1488 1486 1484 1483 1485 1490 1489 1490 1493 1495 1496 1499 1504 1498 1503 1501 1501 1512 1522 1526 1527 1529 1531 1538 1541 1546 1550 1552 1556 1558 1562 1566 1567 1570 1573 1573 1573 1575
1510 1516 1524 1518 1510 1493 1490 1491 1490 1489 1489 1489 1486 1485 1486 1486 1489 1486 1485 1490 1495 1497 1500 1502 1507 1499 1508 1497 1509 1516 1525 1526 1531 1534 1539 1546 1548 1552 1555 1558 1561 1563 1567 1569 1572 1575 1577 1576 1575
1507 1511 1515 1511 1506 1498 1486 1488 1490 1489 1490 1489 1487 1485 1485 1484 1487 1489 1486 1486 1492 1498 1502 1505 1502 1494 1500 1500 1513 1515 1523 1528 1533 1536 1541 1548 1551 1555 1557 1560 1565 1564 1569 1572 1574 1576 1578 1578 1577
1506 1516 1519 1509 1498 1489 1485 1486 1489 1488 1487 1490 1488 1487 1486 1487 1485 1488 1485 1488 1491 1492 1497 1498 1495 1492 1496 1510 1511 1515 1522 1527 1534 1540 1545 1550 1552 1557 1559 1562 1567 1566 1569 1574 1575 1577 1579 1580 1580
1503 1516 1506 1493 1489 1484 1485 1483 1485 1488 1490 1488 1489 1490 1487 1486 1487 1487 1487 1488 1491 1493 1495 1498 1500 1504 1504 1509 1511 1518 1523 1531 1536 1542 1549 1552 1555 1558 1560 1564 1567 1566 1572 1575 1576 1578 1580 1581 1582
1499 1504 1489 1486 1486 1482 1483 1483 1485 1486 1489 1488 1489 1488 1489 1489 1490 1489 1488 1490 1491 1491 1494 1497 1497 1498 1506 1510 1517 1522 1526 1531 1538 1542 1549 1554 1556 1558 1562 1565 1565 1567 1573 1575 1578 1579 1581 1581 1582
1497 1488 1485 1482 1482 1480 1482 1482 1486 1484 1486 1486 1487 1489 1490 1490 1491 1491 1490 1490 1492 1494 1494 1498 1500 1502 1507 1515 1517 1520 1527 1531 1537 1542 1549 1553 1555 1559 1563 1565 1566 1570 1573 1576 1578 1580 1581 1582 1582
1491 1486 1481 1479 1479 1480 1480 1481 1483 1487 1487 1487 1487 1489 1490 1490 1489 1491 1492 1490 1492 1494 1496 1497 1500 1502 1508 1514 1517 1521 1528 1531 1538 1544 1548 1553 1554 1559 1562 1565 1568 1571 1574 1576 1577 1579 1581 1582 1583
1488 1484 1479 1476 1475 1480 1481 1485 1481 1487 1488 1488 1488 1489 1490 1490 1489 1489 1491 1491 1491 1492 1496 1501 1502 1506 1510 1515 1519 1525 1529 1533 1539 1544 1547 1552 1555 1559 1561 1565 1568 1571 1574 1576 1577 1578 1579 1581 1583
1486 1484 1476 1473 1473 1478 1478 1487 1485 1481 1486 1488 1488 1488 1489 1490 1489 1489 1490 1491 1493 1493 1494 1500 1502 1506 1511 1517 1518 1523 1530 1533 1538 1542 1546 1550 1556 1557 1560 1563 1567 1571 1573 1575 1576 1577 1578 1580 1581
1488 1485 1489 1472 1472 1476 1477 1489 1482 1481 1484 1485 1487 1487 1489 1489 1490 1490 1491 1493 1493 1496 1496 1498 1503 1505 1512 1516 1519 1525 1529 1533 1539 1543 1544 1550 1553 1554 1558 1562 1565 1569 1572 1573 1574 1575 1577 1578 1579
1493 1500 1491 1482 1469 1472 1475 1483 1477 1480 1483 1484 1486 1488 1487 1487 1488 1489 1490 1492 1494 1494 1498 1500 1502 1505 1511 1517 1522 1525 1530 1534 1538 1543 1544 1548 1551 1554 1557 1560 1563 1565 1568 1570 1572 1573 1574 1576 1577
1497 1495 1488 1489 1472 1468 1475 1477 1475 1478 1482 1482 1483 1487 1488 1486 1486 1489 1490 1493 1496 1497 1500 1503 1505 1508 1512 1516 1520 1526 1529 1534 1538 1540 1544 1546 1550 1553 1555 1558 1561 1562 1565 1568 1569 1571 1572 1573 1575
1484 1489 1490 1475 1468 1467 1470 1470 1472 1475 1480 1482 1481 1484 1487 1488 1489 1490 1491 1493 1494 1497 1499 1502 1504 1507 1510 1514 1519 1522 1526 1530 1535 1538 1541 1543 1547 1550 1553 1554 1559 1560 1561 1564 1565 1567 1569 1570 1572
1482 1484 1480 1471 1458 1463 1471 1471 1474 1472 1474 1475 1477 1480 1484 1487 1488 1488 1490 1491 1492 1493 1496 1499 1502 1506 1509 1513 1517 1522 1524 1527 1531 1535 1538 1540 1543 1548 1551 1552 1553 1555 1558 1560 1561 1563 1564 1566 1568
1476 1481 1477 1473 1458 1460 1470 1476 1470 1466 1469 1472 1472 1475 1479 1479 1482 1485 1486 1487 1489 1491 1492 1495 1498 1502 1506 1510 1516 1519 1523 1526 1529 1530 1533 1535 1541 1544 1545 1549 1550 1552 1553 1555 1557 1558 1560 1562 1565
1479 1463 1465 1464 1467 1481 1464 1492 1473 1464 1465 1468 1468 1470 1473 1475 1479 1480 1482 1483 1486 1489 1493 1496 1498 1502 1504 1509 1512 1515 1516 1517 1522 1526 1529 1533 1537 1538 1541 1544 1546 1548 1550 1550 1553 1554 1556 1559 1559
1467 1458 1461 1456 1463 1467 1467 1480 1468 1459 1463 1461 1463 1462 1463 1466 1470 1473 1475 1479 1483 1487 1489 1494 1499 1503 1504 1507 1510 1513 1514 1519 1522 1525 1528 1531 1533 1535 1537 1539 1541 1543 1544 1545 1547 1548 1549 1551 1551
1453 1454 1456 1458 1467 1484 1468 1474 1474 1467 1452 1450 1455 1455 1456 1461 1462 1464 1468 1474 1478 1484 1488 1491 1494 1497 1501 1504 1506 1509 1511 1515 1519 1522 1524 1526 1528 1530 1532 1535 1536 1538 1539 1539 1540 1542 1543 1545 1547
1453 1462 1483 1487 1490 1489 1462 1465 1461 1445 1442 1439 1443 1446 1448 1452 1457 1461 1465 1468 1473 1477 1481 1485 1488 1491 1495 1498 1500 1502 1505 1509 1512 1515 1517 1520 1522 1523 1524 1528 1529 1531 1532 1533 1534 1535 1537 1539 1541
1450 1458 1485 1490 1499 1478 1462 1467 1454 1435 1433 1432 1438 1439 1442 1446 1448 1453 1455 1458 1463 1468 1473 1477 1481 1486 1488 1488 1490 1495 1500 1503 1506 1508 1511 1514 1516 1519 1521 1521 1521 1525 1526 1528 1527 1528 1530 1534 1536
1444 1455 1447 1466 1473 1482 1470 1454 1439 1430 1428 1428 1430 1432 1436 1439 1442 1445 1449 1453 1456 1461 1463 1466 1472 1475 1476 1477 1483 1486 1490 1494 1497 1500 1502 1507 1512 1514 1513 1515 1517 1519 1519 1521 1522 1522 1526 1528 1529
1431 1433 1455 1465 1478 1481 1468 1460 1455 1435 1426 1425 1427 1432 1432 1433 1437 1440 1443 1446 1449 1453 1456 1461 1463 1463 1464 1473 1481 1484 1486 1489 1492 1495 1499 1501 1506 1508 1509 1508 1512 1511 1513 1511 1514 1516 1519 1521 1522
1434 1437 1437 1444 1459 1473 1476 1465 1435 1429 1423 1420 1421 1426 1427 1429 1431 1433 1437 1440 1443 1447 1450 1452 1457 1460 1464 1467 1472 1474 1478 1483 1487 1489 1494 1498 1497 1498 1501 1503 1503 1504 1506 1508 1509 1511 1513 1513 1514
1421 1422 1427 1449 1453 1457 1466 1446 1423 1422 1422 1418 1419 1420 1422 1425 1426 1428 1430 1434 1438 1441 1446 1447 1450 1454 1454 1458 1470 1475 1481 1479 1481 1484 1485 1487 1476 1494 1484 1492 1495 1496 1498 1502 1503 1504 1506 1506 1506